STARLINK-2338, 47793

Orbit data source: Space-Track

STARLINK-2338, 47793 is a payload satellite owned by SpaceX/Seattle (US) in LEO that was launched on Thu, 11 Mar 2021 UTC via an FALCON 9 launch vehicle from the Air Force Eastern Test Range (AFETR). Payload-class satellites include a variety of spacecraft equipped with specific instruments for various scientific and technological missions. These include communications satellites like Starlink; space stations such as the ISS; scientific satellites like the Hubble; Earth observation satellites from companies like Planet Labs, Umbra, and HawkEye 360; GPS; miniature CubeSats for education and research; and military/defense satellites.

Loading next visibility...
Identifier
47793, 2021-018G
Orbit
LEO
Country
Flag of USUS
Related business
Manufacturer
SpaceX/Seattle
Mission
Operational Commercial Communications
Bus & Motor
STARLINK, Unknown motor
Mass
260 kg wet, ~248 kg dry
Launch date (UTC)
2021-03-11 (5 years ago)
Launch vehicle
FALCON 9
Launch site
Air Force Eastern Test Range (AFETR)
Object type
Payload
Rocket body
Debris
Shape & HBR
Box + 1 Pan, 10.1 m
Radar Cross Section
13.562 m², Large (>1 m²)

Expand to show TLE details & history
Last TLE update: 14 hours ago

TLE from 14 hours ago
0 STARLINK-2338
1 47793U 21018G   25292.19944504  .00002652  00000-0  19683-3 0  9993
2 47793  53.0524 146.7930 0001432  87.1121 273.0032 15.06408522255542
Epoch: 2025-10-19T04:47Z
TLE epoch observation values (Epoch: 2025-10-19T04:47:12.051Z)
Latitude
-0.00001°
Longitude
47.07325°
Altitude
548.013 km
Speed
7.589 km/s
True Right ascension
09h 47m 10s
True Declination
0° 00' 00"
Sunlit
Object was in daylight at epoch
Visualization orbit readout
Latitude
Unknown
Longitude
Unknown
Altitude
Unknown
Speed
Unknown
Apparent Right ascension
Unknown
Apparent Declination
Unknown
Sunlit
N/A
Visualization observer readout
Local Sidereal Time
13:29:06
Azimuth
Unknown
Elevation
Unknown
Doppler factor
Unknown
Orbital elements
Apogee altitude
548.448 km
Perigee altitude
546.465 km
Semi-major axis
6,925.593 km
Eccentricity
0.00014
Inclination
53.0524°
RAAN
146.793°
Arg. of periapsis
87.1121°
True anomaly
272.98681°
Mean anomaly
273.0032°
Eccentric anomaly
272.99501°
Mean motion
3.7658 °/min
Orbital period
95.6 mins
BSTAR
0.00019683
Loading maneuver chart data...
Computing Atmospheric mass density...

Documentation

Showing up to 5 results
|